SCP
0 0 0 0 0 0 0 0 0 0 0 0 0 0 0 0 0 0 0 0 0 0 0 0 0 0 0 0 0 0 0 0 0 0 0 0 0 0 0 0 0 0 0 0 0 0 0 0 0
0 0 0 0 0 0 0 0 0 0 0 0 0 0 0 0 0 0 0 0 0 0 0 0 0 0 0 0 0 0 0 0 0 0 0 0 0 0 0 0 0 0 0 0 0 0 0 0 0
0 0 0 0 0 0 0 0 0 0 0 0 0 0 0 0 0 0 0 0 0 0 0 0 0 0 0 0 0 0 0 0 0 0 0 0 0 0 0 0 0 0 0 0 0 0 0 0 0
0 0 0 0 0 0 0 0 0 0 0 0 0 0 0 0 0 0 0 0 0 0 0 0 0 0 0 0 0 0 0 0 0 0 0 0 0 0 0 0 0 0 0 0 0 0 0 0 0
0 0 0 0 0 0 0 0 0 0 0 0 0 0 0 0 0 0 0 0 0 0 0 0 0 0 0 0 0 0 0 0 0 0 0 0 0 0 0 0 0 0 0 0 0 0 0 0 0
0 0 0 0 0 0 0 0 0 0 0 0 0 0 0 0 0 0 0 0 0 0 0 0 0 0 0 0 0 0 0 0 0 0 0 0 0 0 0 0 0 0 0 0 0 0 0 0 0
0 0 0 0 0 0 0 0 0 0 0 0 0 0 0 0 0 0 0 0 0 0 0 0 0 0 0 0 0 0 0 0 0 0 0 0 0 0 0 0 0 0 0 0 0 0 0 0 0
0 0 0 0 0 0 0 0 0 0 0 0 0 0 0 0 0 0 0 0 0 0 0 0 0 0 0 0 0 0 0 0 0 0 0 0 0 0 0 0 0 0 0 0 0 0 0 0 0
0 0 0 0 0 0 0 0 0 0 0 0 0 0 0 0 0 0 0 0 0 0 0 0 0 0 0 0 0 0 0 0 0 0 0 0 0 0 0 0 0 0 0 0 0 0 0 0 0
0 0 0 0 0 0 0 0 0 0 0 0 0 0 0 0 0 0 0 0 0 0 0 0 0 0 0 0 0 0 0 0 0 0 0 0 0 0 0 0 0 0 0 0 0 0 0 0 0
0 0 0 0 0 0 0 0 0 0 0 0 0 0 0 0 0 0 0 0 0 0 0 0 0 0 0 0 0 0 0 0 0 0 0 0 0 0 0 0 0 0 0 0 0 0 0 0 0
0 0 0 0 0 0 0 0 0 0 0 0 0 0 0 0 0 0 0 0 0 0 0 0 0 0 0 0 0 0 0 0 0 0 0 0 0 0 0 0 0 0 0 0 0 0 0 0 0
0 0 0 0 0 0 0 0 0 0 0 0 0 0 0 0 0 0 0 0 0 0 0 0 0 0 0 0 0 0 0 0 0 0 0 0 0 0 0 0 0 0 0 0 0 0 0 0 0
0 0 0 0 0 0 0 0 0 0 0 0 0 0 0 0 0 0 0 0 0 0 0 0 0 0 0 0 0 0 0 0 0 0 0 0 0 0 0 0 0 0 0 0 0 0 0 0 0
0 0 0 0 0 0 0 0 0 0 0 0 0 0 0 0 0 0 0 0 0 0 0 0 0 0 0 0 0 0 0 0 0 0 0 0 0 0 0 0 0 0 0 0 0 0 0 0 0
0 0 0 0 0 0 0 0 0 0 0 0 0 0 0 0 0 0 0 0 0 0 0 0 0 0 0 0 0 0 0 0 0 0 0 0 0 0 0 0 0 0 0 0 0 0 0 0 0
0 0 0 0 0 0 0 0 0 0 0 0 0 0 0 0 0 0 0 0 0 0 0 0 0 0 0 0 0 0 0 0 0 0 0 0 0 0 0 0 0 0 0 0 0 0 0 0 0
0 0 0 0 0 0 0 0 0 0 0 0 0 0 0 0 0 0 0 0 0 0 0 0 0 0 0 0 0 0 0 0 0 0 0 0 0 0 0 0 0 0 0 0 0 0 0 0 0
0 0 0 0 0 0 0 0 0 0 0 0 0 0 0 0 0 0 0 0 0 0 0 0 0 0 0 0 0 0 0 0 0 0 0 0 0 0 0 0 0 0 0 0 0 0 0 0 0
0 0 0 0 0 0 0 0 0 0 0 0 0 0 0 0 0 0 0 0 0 0 0 0 0 0 0 0 0 0 0 0 0 0 0 0 0 0 0 0 0 0 0 0 0 0 0 0 0
0 0 0 0 0 0 0 0 0 0 0 0 0 0 0 0 0 0 0 0 0 0 0 0 0 0 0 0 0 0 0 0 0 0 0 0 0 0 0 0 0 0 0 0 0 0 0 0 0
0 0 0 0 0 0 0 0 0 0 0 0 0 0 0 0 0 0 0 0 0 0 0 0 0 0 0 0 0 0 0 0 0 0 0 0 0 0 0 0 0 0 0 0 0 0 0 0 0
0 0 0 0 0 0 0 0 0 0 0 0 0 0 0 0 0 0 0 0 0 0 0 0 0 0 0 0 0 0 0 0 0 0 0 0 0 0 0 0 0 0 0 0 0 0 0 0 0
0 0 0 0 0 0 0 0 0 0 0 0 0 0 0 0 0 0 0 0 0 0 0 0 0 0 0 0 0 0 0 0 0 0 0 0 0 0 0 0 0 0 0 0 0 0 0 0 0
0 0 0 0 0 0 0 0 0 0 0 0 0 0 0 0 0 0 0 0 0 0 0 0 0 0 0 0 0 0 0 0 0 0 0 0 0 0 0 0 0 0 0 0 0 0 0 0 0
0 0 0 0 0 0 0 0 0 0 0 0 0 0 0 0 0 0 0 0 0 0 0 0 0 0 0 0 0 0 0 0 0 0 0 0 0 0 0 0 0 0 0 0 0 0 0 0 0
0 0 0 0 0 0 0 0 0 0 0 0 0 0 0 0 0 0 0 0 0 0 0 0 0 0 0 0 0 0 0 0 0 0 0 0 0 0 0 0 0 0 0 0 0 0 0 0 0
0 0 0 0 0 0 0 0 0 0 0 0 0 0 0 0 0 0 0 0 0 0 0 0 0 0 0 0 0 0 0 0 0 0 0 0 0 0 0 0 0 0 0 0 0 0 0 0 0
0 0 0 0 0 0 0 0 0 0 0 0 0 0 0 0 0 0 0 0 0 0 0 0 0 0 0 0 0 0 0 0 0 0 0 0 0 0 0 0 0 0 0 0 0 0 0 0 0
0 0 0 0 0 0 0 0 0 0 0 0 0 0 0 0 0 0 0 0 0 0 0 0 0 0 0 0 0 0 0 0 0 0 0 0 0 0 0 0 0 0 0 0 0 0 0 0 0
Wind_Speed
5 3 2 4 6 4 2 5 4 3 2 1 5 10 9 5 3 4 3 11 13 14 12 16 19 18 17 16 16 16 15 14 14 14 14 13 13 13 13 13 13 13 13 13 13 13 13 13 13
2 2 4 5 5 1 5 4 4 4 6 6 6 7 7 3 2 7 6 11 17 15 11 13 19 18 18 17 17 16 15 15 14 14 14 13 12 12 12 12 12 12 12 12 12 12 12 12 12
2 1 4 4 3 5 4 4 6 4 4 4 5 5 7 7 6 9 9 16 15 13 10 14 20 19 18 18 17 16 16 15 15 14 13 13 12 12 12 11 11 12 12 12 12 11 11 11 11
3 4 5 3 4 6 5 5 4 5 2 4 7 5 3 3 7 8 15 18 16 12 10 14 20 19 19 18 18 17 16 15 15 14 13 13 12 12 11 11 11 11 11 11 11 11 10 10 10
4 4 3 1 5 5 4 5 5 5 5 4 6 6 1 4 4 13 18 18 17 12 10 13 20 20 19 19 18 17 16 16 15 14 13 13 12 12 11 11 10 10 10 10 10 9 9 9 8
4 4 3 3 5 4 4 4 5 4 3 3 7 6 1 1 10 14 16 16 15 15 12 12 20 20 19 19 18 17 17 16 15 14 14 13 12 12 11 10 10 9 9 9 8 8 7 7 7
4 3 3 4 3 4 4 3 5 5 3 4 8 7 2 3 7 11 12 12 13 13 11 9 11 14 18 18 18 18 17 16 15 14 14 13 12 11 11 10 9 8 8 7 7 6 5 5 5
4 4 2 3 3 4 3 2 4 6 4 2 7 10 8 8 7 8 9 9 10 10 10 9 9 9 9 11 16 16 16 15 15 14 13 12 11 11 10 9 8 7 7 6 5 4 4 3 3
4 3 3 4 4 4 2 1 0 3 4 3 2 6 7 13 11 11 8 7 10 11 10 10 9 8 8 8 12 13 14 14 13 12 13 10 5 5 6 7 8 7 6 4 3 2 1 1 2
4 4 6 4 3 2 1 0 1 3 3 2 3 3 7 13 15 15 14 15 15 15 13 11 11 10 9 8 7 6 6 7 7 6 7 5 4 4 5 7 8 7 5 4 2 2 1 1 2
6 7 5 4 3 1 0 2 0 4 3 5 6 7 10 11 12 14 15 16 17 16 15 13 12 11 10 7 6 4 4 5 6 7 7 5 4 3 3 2 3 3 3 1 2 1 1 1 2
4 6 5 4 3 1 1 1 1 3 6 5 8 13 13 13 15 16 16 14 12 14 16 14 14 12 11 8 7 6 5 5 5 6 7 5 4 3 3 3 3 2 1 2 2 1 2 2 2
6 5 5 5 4 3 3 3 3 5 6 3 5 11 14 15 15 14 13 12 11 15 16 16 15 14 12 10 8 8 7 7 6 6 7 7 5 5 4 3 3 3 2 2 2 2 2 2 2
6 7 6 6 5 4 5 5 3 8 5 3 6 11 13 14 15 11 10 11 13 15 16 16 16 16 14 11 9 8 8 7 7 6 7 8 6 5 5 4 4 3 3 3 2 2 1 1 1
5 4 6 6 6 5 3 7 8 10 4 5 7 9 12 13 13 14 15 15 16 16 16 17 18 16 16 14 12 9 8 8 8 7 8 8 7 6 6 4 4 4 3 3 2 1 1 0 1
2 3 6 6 5 5 6 11 11 8 5 8 9 9 10 12 12 14 14 14 14 14 15 17 16 16 16 14 12 9 8 8 8 7 7 9 8 8 6 5 4 4 3 3 2 1 0 0 1
2 5 7 6 5 6 8 10 10 5 6 9 9 9 10 10 11 12 13 14 14 16 16 17 16 18 17 14 11 9 9 9 7 7 7 8 9 9 6 5 4 4 3 2 2 1 1 0 1
7 6 5 7 4 7 8 11 10 6 7 10 10 10 10 11 14 12 13 13 13 14 15 17 16 17 15 11 8 7 7 7 7 7 8 9 8 9 7 5 5 5 3 3 2 2 1 1 1
6 6 6 6 5 6 10 13 14 10 8 10 11 11 12 14 12 9 10 10 10 12 14 16 16 15 13 11 10 10 9 8 7 7 9 10 9 9 8 5 5 5 4 4 4 2 2 0 0
7 6 6 5 3 6 8 13 12 11 10 12 12 12 13 12 9 8 8 8 11 13 15 15 16 16 16 13 11 8 7 6 6 6 8 10 10 9 8 8 6 6 4 4 4 3 2 1 1
12 11 9 6 4 3 4 8 9 9 8 9 9 10 10 12 12 9 9 10 11 13 15 15 16 16 15 13 8 6 4 3 4 6 7 8 10 9 8 8 7 6 6 5 5 4 5 3 1
14 10 9 7 4 5 2 6 8 7 8 9 10 9 9 10 9 9 9 10 11 13 12 13 15 14 14 14 13 13 10 9 9 7 6 7 9 9 9 9 8 7 6 6 5 5 4 4 2
7 7 8 7 6 5 4 5 9 5 9 11 10 9 9 9 9 9 10 10 10 10 11 11 12 13 13 14 15 15 10 7 5 5 7 8 7 8 9 9 8 7 6 6 6 5 5 4 4
6 4 2 1 2 8 10 8 10 7 11 9 8 8 8 8 8 7 6 6 6 7 8 10 12 12 13 14 15 15 13 10 9 9 9 8 5 6 8 8 8 7 6 7 6 6 6 5 4
9 7 4 4 5 9 7 9 12 11 11 11 10 9 8 8 7 6 6 7 7 8 9 10 12 12 12 14 14 14 14 14 14 11 11 9 6 6 8 8 8 7 7 7 6 6 6 6 5
15 14 10 10 8 5 5 11 11 11 9 8 8 8 7 7 6 7 7 8 8 9 10 10 12 11 12 13 12 11 12 10 9 11 9 10 8 8 9 9 8 8 8 7 6 5 5 5 5
14 14 8 5 3 3 7 7 9 4 5 6 7 7 8 8 8 7 7 7 8 9 10 11 12 10 11 12 11 10 11 11 10 9 8 8 7 6 9 9 9 8 8 8 7 5 6 5 5
12 12 7 7 8 7 6 7 7 6 9 8 8 9 9 8 7 7 6 7 7 8 8 8 9 10 9 10 10 9 10 10 10 9 10 9 8 8 9 9 9 8 8 8 7 5 5 6 5
11 12 9 8 6 7 6 9 9 12 12 12 12 11 10 9 8 7 7 6 6 6 7 8 8 8 8 9 9 9 9 9 9 10 10 10 9 9 10 10 9 9 8 8 7 6 6 7 6
11 13 13 12 9 8 6 10 6 8 10 10 11 10 9 8 7 7 6 6 6 7 7 8 8 8 8 8 8 9 8 8 9 9 9 10 10 10 10 9 9 9 8 8 8 8 7 8 8
Wind_Direction
329 354 72 58 56 53 250 244 204 166 123 129 101 102 108 111 143 153 146 142 142 149 159 158 156 153 149 144 138 132 128 123 119 115 111 108 104 100 96 93 90 88 86 84 83 82 80 79 78
356 22 59 61 87 112 264 244 179 176 163 144 103 97 94 93 124 127 132 153 147 151 154 156 157 154 150 146 142 137 133 128 124 120 116 113 110 106 102 100 96 93 90 89 87 85 83 82 81
343 66 81 77 131 193 229 219 175 165 165 124 88 83 129 152 158 162 162 150 145 150 153 159 158 155 152 150 146 143 139 134 129 126 123 120 116 112 108 105 102 98 95 93 91 87 85 84 82
50 47 57 81 236 234 207 211 173 138 118 89 103 87 119 165 176 169 147 147 146 150 154 161 159 158 155 154 151 148 144 139 135 132 129 126 122 118 114 111 108 104 100 96 94 90 86 84 82
63 75 67 315 254 254 215 204 178 147 150 123 111 115 108 336 139 140 146 150 151 153 157 164 162 161 159 157 155 152 148 145 141 139 135 132 128 124 121 118 115 111 106 101 96 92 88 84 81
60 73 103 240 255 262 247 199 150 145 152 125 115 119 132 77 136 149 152 153 154 156 159 164 166 163 161 160 158 156 153 150 148 145 141 138 135 132 129 125 121 116 110 104 98 94 89 84 79
114 112 190 229 255 267 245 186 147 145 146 170 135 121 147 169 161 149 148 147 152 156 158 163 165 164 164 162 161 160 158 155 154 151 147 144 142 140 137 134 131 124 117 110 103 96 89 78 68
138 117 236 246 231 247 250 164 156 141 166 150 126 143 181 194 160 134 133 140 150 158 162 162 161 161 162 163 164 163 162 161 159 155 151 149 150 147 146 143 141 136 131 125 117 105 87 63 36
110 98 224 232 215 240 275 110 77 141 110 81 108 174 187 149 139 133 134 144 159 166 169 165 162 160 158 161 167 164 164 164 161 158 155 149 141 141 148 155 157 154 151 147 140 131 105 358 329
120 173 223 228 215 215 308 76 166 104 93 80 51 45 118 141 153 158 164 169 173 177 177 172 168 165 162 167 163 161 161 161 155 154 154 148 151 159 162 176 175 172 174 181 195 223 277 326 318
173 199 226 251 246 226 334 324 310 133 172 185 175 163 148 158 168 176 179 181 182 178 177 177 173 169 168 166 162 161 156 156 157 160 160 157 156 163 166 170 181 187 189 210 264 297 314 287 273
203 230 219 238 240 207 220 252 295 190 209 197 180 166 165 174 184 188 188 187 179 176 182 179 176 173 173 168 168 167 166 167 171 174 168 162 163 170 173 178 184 189 196 213 244 261 277 277 270
230 248 243 237 229 214 212 231 236 246 243 222 166 167 180 187 194 199 195 186 178 182 184 181 179 178 176 171 173 175 176 176 176 176 177 171 171 177 178 185 187 194 197 204 223 246 274 285 288
222 232 251 250 239 226 219 249 228 250 247 212 181 187 196 198 200 198 196 192 190 189 187 183 182 181 177 178 179 179 180 179 178 183 183 179 176 175 176 184 190 197 199 199 197 215 232 257 277
219 240 273 249 224 224 203 267 238 241 241 232 217 208 206 211 206 202 201 199 197 193 188 185 184 182 181 181 181 179 181 179 183 187 186 183 179 177 177 180 188 197 195 190 183 206 215 269 317
185 206 246 257 210 203 171 250 255 248 222 235 233 224 220 221 216 214 208 203 199 192 188 188 185 184 184 183 182 180 180 182 186 185 186 186 183 178 177 180 192 188 177 175 171 176 161 325 328
214 205 222 258 220 186 187 239 255 245 209 232 238 233 228 231 231 223 214 207 199 194 190 187 186 184 185 184 181 180 179 184 186 183 186 189 186 180 178 184 185 174 169 171 171 159 158 206 292
202 203 212 222 235 184 209 239 255 255 224 234 241 241 237 234 234 223 214 207 201 195 190 187 186 184 181 178 173 173 178 185 185 186 189 186 186 183 179 179 178 168 162 169 167 161 142 170 248
185 190 216 235 231 195 225 242 250 250 244 244 245 242 240 241 241 228 213 203 194 190 187 186 184 182 176 177 178 181 187 186 188 190 188 186 184 182 178 175 174 171 173 179 174 155 148 168 71
218 225 238 268 250 215 241 253 253 245 235 235 237 239 238 241 244 229 208 194 189 188 188 186 186 182 181 183 183 183 176 179 185 185 187 187 184 182 181 177 177 175 170 173 174 159 150 154 114
220 220 224 238 296 296 269 280 263 259 245 247 242 236 233 228 228 221 207 199 191 190 189 188 188 184 183 176 164 147 137 139 170 188 191 191 186 183 180 179 174 176 175 182 184 172 163 171 176
225 215 212 224 238 265 226 275 271 256 266 255 250 240 234 231 220 214 206 199 196 196 190 187 185 183 181 174 173 172 179 185 189 183 185 185 185 182 180 178 176 178 179 180 183 176 166 156 173
205 186 198 212 214 250 246 252 270 255 253 252 244 236 234 225 216 214 209 203 197 189 184 184 180 181 179 179 180 182 186 183 165 165 176 183 185 184 181 177 177 180 181 181 176 171 170 167 171
171 129 141 130 172 243 223 218 265 227 225 238 237 229 228 222 217 218 212 195 189 181 178 176 176 181 180 182 182 186 183 173 167 175 182 185 185 186 185 179 180 181 180 181 182 179 175 179 175
164 146 170 210 220 240 208 213 246 233 226 219 220 221 220 213 204 203 197 190 186 180 179 177 177 181 182 183 186 188 185 180 182 182 185 183 183 190 191 183 183 182 184 183 178 178 183 182 181
189 177 181 191 206 241 203 226 247 241 235 226 217 210 207 206 203 204 203 194 188 185 181 178 181 181 182 185 189 187 184 185 189 187 185 188 192 192 185 185 186 185 182 182 179 181 188 185 190
178 195 178 153 180 218 239 258 288 248 223 216 206 198 205 207 206 206 202 195 189 186 186 184 183 182 185 187 185 185 186 187 187 184 184 188 188 182 182 183 185 185 183 182 179 188 192 188 197
176 164 156 177 183 221 253 239 232 218 213 215 211 210 215 214 210 207 202 197 192 188 185 182 183 185 184 185 186 187 189 188 184 182 188 188 184 179 179 184 186 186 187 185 184 189 192 192 202
168 177 172 174 187 183 228 251 219 206 203 202 211 212 209 207 206 205 203 197 187 179 178 182 186 185 185 187 186 186 187 184 183 187 190 188 184 181 183 186 186 188 189 187 189 196 191 199 208
178 184 173 185 202 189 202 256 245 213 207 198 205 210 209 206 202 198 193 184 182 185 186 187 188 190 191 186 183 187 183 181 185 190 188 184 185 186 186 184 187 191 192 191 193 199 198 202 209